Date String (YYYY-MM-DD hh:mm:ss) UTC,Instrument flags,Ambient pressure (hPa),Sample flow (lpm),Bypass flow (lpm),Sample temperature (°C),Ambient temperature (°C),ASC tube jacket temperature (°C),LED temperature (°C),Box temperature (°C),Sample RH (%),Span deviation,Mass concentration (μg/m³),Mass concentration (μg/m³),Mass concentration (μg/m³)
DateTimeUTC,F1_M11,P_M11,Q1_M11,Q2_M11,T1_M11,T2_M11,T3_M11,T4_M11,T5_M11,U1_M11,ZSPAN_M11,X0_M11,X2_M11,X1_M11
2022-05-21 22:00:00,,0831.0,5.01,0.00,23.6,22.8,00.0,32.6,25.4,22.3,0000.0,0002.09,0000.05,0000.01
2022-05-21 22:01:00,,0830.9,4.99,0.00,23.6,22.8,00.0,32.6,25.4,23.0,0000.0,0002.10,0000.05,0000.01
2022-05-21 22:02:00,,0830.9,5.00,0.00,23.5,22.8,00.0,32.6,25.3,22.1,0000.0,0002.10,0000.05,0000.01
2022-05-21 22:03:00,,0831.0,5.00,0.00,23.5,22.7,00.0,32.6,25.3,22.2,0000.0,0002.10,0000.05,0000.01
2022-05-21 22:04:00,,0830.9,4.99,0.00,23.5,22.7,00.0,32.6,25.4,23.3,0000.0,0002.09,0000.05,0000.01
2022-05-21 22:05:00,,0831.0,5.01,0.00,23.5,22.7,00.0,32.6,25.3,21.3,0000.0,0001.35,0000.04,0000.01
2022-05-21 22:06:00,,0831.0,4.99,0.00,23.5,22.7,00.0,32.6,25.3,21.0,0000.0,0000.32,0000.04,0000.01
2022-05-21 22:07:00,,0830.9,4.99,0.00,23.5,22.7,00.0,32.5,25.3,20.1,0000.0,0000.43,0000.04,0000.01
2022-05-21 22:08:00,,0830.9,5.01,0.00,23.5,22.7,00.0,32.5,25.3,20.1,0000.0,0000.45,0000.04,0000.01
2022-05-21 22:09:00,,0830.9,4.99,0.00,23.5,22.7,00.0,32.5,25.3,20.1,0000.0,0000.45,0000.04,0000.01
2022-05-21 22:10:00,,0831.0,5.01,0.00,23.5,22.7,00.0,32.5,25.4,19.5,0000.0,0000.36,0000.04,0000.01
2022-05-21 22:11:00,,0830.9,5.00,0.00,23.5,22.7,00.0,32.5,25.4,20.1,0000.0,0000.19,0000.02,0000.01
2022-05-21 22:12:00,,0830.9,5.00,0.00,23.5,22.7,00.0,32.5,25.4,19.2,0000.0,0000.18,0000.02,0000.01
2022-05-21 22:13:00,,0830.9,5.00,0.00,23.5,22.7,00.0,32.5,25.4,18.5,0000.0,0000.18,0000.02,0000.01
2022-05-21 22:14:00,,0830.9,5.01,0.00,23.5,22.7,00.0,32.5,25.3,18.5,0000.0,0000.18,0000.02,0000.01
2022-05-21 22:15:00,,0830.9,5.00,0.00,23.5,22.6,00.0,32.5,25.3,20.6,0000.0,0000.18,0000.02,0000.01
2022-05-21 22:16:00,,0830.9,4.99,0.00,23.5,22.6,00.0,32.5,25.3,22.3,0000.0,0000.18,0000.02,0000.01
2022-05-21 22:17:00,,0831.0,5.00,0.00,23.5,22.7,00.0,32.5,25.3,20.7,0000.0,0000.20,0000.03,0000.01
2022-05-21 22:18:00,,0831.0,5.00,0.00,23.5,22.7,00.0,32.5,25.3,22.4,0000.0,0000.14,0000.04,0000.01
2022-05-21 22:19:00,,0830.9,5.00,0.00,23.5,22.7,00.0,32.5,25.3,22.1,0000.0,0000.08,0000.04,0000.01
2022-05-21 22:20:00,,0831.0,4.99,0.00,23.5,22.7,00.0,32.5,25.3,21.4,0000.0,0000.07,0000.04,0000.01
2022-05-21 22:21:00,,0830.9,5.01,0.00,23.5,22.7,00.0,32.5,25.3,21.9,0000.0,0000.08,0000.04,0000.01
2022-05-21 22:22:00,,0831.0,4.99,0.00,23.5,22.7,00.0,32.5,25.2,22.0,0000.0,0000.07,0000.04,0000.01
2022-05-21 22:23:00,,0831.0,5.01,0.00,23.5,22.6,00.0,32.5,25.2,21.9,0000.0,0000.09,0000.04,0000.01
2022-05-21 22:24:00,,0831.0,5.00,0.00,23.5,22.7,00.0,32.5,25.2,21.4,0000.0,0000.13,0000.06,0000.01
2022-05-21 22:25:00,,0830.9,5.00,0.00,23.5,22.7,00.0,32.5,25.3,21.9,0000.0,0000.14,0000.07,0000.01
2022-05-21 22:26:00,,0830.9,5.01,0.00,23.5,22.7,00.0,32.5,25.3,23.1,0000.0,0000.14,0000.07,0000.01
2022-05-21 22:27:00,,0831.0,4.99,0.00,23.5,22.7,00.0,32.5,25.3,22.8,0000.0,0000.16,0000.07,0000.01
2022-05-21 22:28:00,,0830.9,5.01,0.00,23.5,22.7,00.0,32.5,25.3,21.3,0000.0,0000.15,0000.07,0000.01
2022-05-21 22:29:00,,0830.9,4.99,0.00,23.5,22.7,00.0,32.5,25.3,22.0,0000.0,0000.14,0000.06,0000.01
2022-05-21 22:30:00,,0830.9,5.00,0.00,23.5,22.7,00.0,32.5,25.3,22.2,0000.0,0000.22,0000.06,0000.01
2022-05-21 22:31:00,,0831.0,5.01,0.00,23.5,22.7,00.0,32.5,25.3,21.0,0000.0,0000.22,0000.06,0000.01
2022-05-21 22:32:00,,0830.9,4.99,0.00,23.5,22.6,00.0,32.5,25.3,21.2,0000.0,0000.21,0000.05,0000.00
2022-05-21 22:33:00,,0830.9,5.01,0.00,23.5,22.6,00.0,32.5,25.2,22.1,0000.0,0000.21,0000.05,0000.00
2022-05-21 22:34:00,,0831.0,5.00,0.00,23.5,22.6,00.0,32.5,25.2,22.2,0000.0,0000.21,0000.06,0000.00
2022-05-21 22:35:00,,0831.0,5.00,0.00,23.5,22.6,00.0,32.5,25.2,21.5,0000.0,0000.20,0000.06,0000.00
2022-05-21 22:36:00,,0831.0,4.99,0.00,23.5,22.6,00.0,32.5,25.2,22.8,0000.0,0000.24,0000.06,0000.00
2022-05-21 22:37:00,,0831.0,5.01,0.00,23.5,22.6,00.0,32.5,25.2,22.6,0000.0,0000.24,0000.06,0000.01
2022-05-21 22:38:00,,0830.9,4.99,0.00,23.5,22.7,00.0,32.5,25.3,21.6,0000.0,0000.22,0000.05,0000.01
2022-05-21 22:39:00,,0831.0,5.01,0.00,23.5,22.7,00.0,32.5,25.3,21.2,0000.0,0000.21,0000.05,0000.01
2022-05-21 22:40:00,,0831.0,4.99,0.00,23.5,22.7,00.0,32.5,25.3,21.6,0000.0,0000.20,0000.05,0000.01
2022-05-21 22:41:00,,0830.9,5.00,0.00,23.5,22.7,00.0,32.5,25.4,22.0,0000.0,0000.09,0000.04,0000.00
2022-05-21 22:42:00,,0830.9,5.00,0.00,23.5,22.8,00.0,32.5,25.4,22.1,0000.0,0000.16,0000.07,0000.01
2022-05-21 22:43:00,,0830.9,5.00,0.00,23.5,22.8,00.0,32.5,25.4,21.6,0000.0,0000.26,0000.08,0000.01
2022-05-21 22:44:00,,0830.9,5.01,0.00,23.5,22.7,00.0,32.5,25.4,21.8,0000.0,0000.30,0000.08,0000.01
2022-05-21 22:45:00,,0831.0,4.99,0.00,23.5,22.7,00.0,32.5,25.4,20.9,0000.0,0000.29,0000.08,0000.01
2022-05-21 22:46:00,,0831.0,5.01,0.00,23.6,22.8,00.0,32.5,25.5,21.9,0000.0,0000.26,0000.06,0000.01
2022-05-21 22:47:00,,0830.9,4.99,0.00,23.6,22.8,00.0,32.5,25.5,22.0,0000.0,0000.22,0000.05,0000.01
2022-05-21 22:48:00,,0830.9,5.00,0.00,23.6,22.8,00.0,32.5,25.4,23.4,0000.0,0000.26,0000.07,0000.01
2022-05-21 22:49:00,,0830.9,4.99,0.00,23.6,22.8,00.0,32.5,25.4,22.6,0000.0,0000.27,0000.07,0000.01
2022-05-21 22:50:00,,0831.0,5.01,0.00,23.6,22.8,00.0,32.5,25.4,23.4,0000.0,0000.27,0000.07,0000.01
2022-05-21 22:51:00,,0830.9,4.99,0.00,23.6,22.9,00.0,32.5,25.4,22.0,0000.0,0000.27,0000.07,0000.01
2022-05-21 22:52:00,,0831.0,5.01,0.00,23.6,22.9,00.0,32.5,25.4,19.8,0000.0,0000.27,0000.07,0000.01
2022-05-21 22:53:00,,0830.9,4.99,0.00,23.6,22.8,00.0,32.5,25.4,19.3,0000.0,0000.21,0000.04,0000.01
2022-05-21 22:54:00,,0830.9,5.01,0.00,23.6,22.8,00.0,32.6,25.4,19.3,0000.0,0000.10,0000.03,0000.01
2022-05-21 22:55:00,,0830.9,4.99,0.00,23.6,22.8,00.0,32.6,25.4,19.1,0000.0,0000.07,0000.03,0000.01
2022-05-21 22:56:00,,0831.0,5.00,0.00,23.6,22.8,00.0,32.6,25.4,19.3,0000.0,0000.08,0000.03,0000.01
2022-05-21 22:57:00,,0831.0,4.98,0.00,23.6,22.9,00.0,32.6,25.5,21.6,0000.0,0000.11,0000.04,0000.01
2022-05-21 22:58:00,,0830.9,5.01,0.00,23.6,22.9,00.0,32.6,25.5,20.6,0000.0,0000.11,0000.04,0000.01
2022-05-21 22:59:00,,0831.0,4.99,0.00,23.6,22.9,00.0,32.6,25.5,21.3,0000.0,0000.13,0000.03,0000.01
